Location: Ladysmith
(45.4630°N, 91.1040°W)
Time: 14:59:23
(UTC-05:00)

Amateur Radio Satellites - All Passes

Search period start: 30 August 2015 14:29
Search period end: 31 August 2015 14:29
Location: Ladysmith, 45.4630°N, 91.1040°W

Satellite Date Start Highest point End Downlink Frequencies (MHz)
Time Altitude Azimuth
Gurwin Techsat 1B 30 Aug 14:30:35 14:35:53 86° 78° (ENE) 14:41:15 435.225
ISS 30 Aug 14:40:55 14:44:00 40° 18° (NNE) 14:47:07 145.825
GONETS M04 30 Aug 14:52:02 15:00:52 83° 262° (W) 15:09:41
Cosmos 2499 30 Aug 14:52:59 15:00:43 34° 65° (ENE) 15:08:10 435.465 / 435.565
JAS-2 30 Aug 14:53:27 15:01:05 71° 72° (ENE) 15:08:56 435.910
TISAT 1 30 Aug 14:57:16 15:00:35 22° 295° (WNW) 15:03:49 437.305
ITAMSAT 1 30 Aug 14:57:57 15:03:05 66° 258° (WSW) 15:08:16 435.822/435.867
BEESAT 30 Aug 15:00:58 15:05:45 72° 103° (ESE) 15:10:30 436.000
KKS-1 30 Aug 15:01:58 15:04:01 13° 88° (E) 15:06:18 437.445
HORYU 2 30 Aug 15:12:37 15:16:14 25° 66° (ENE) 15:19:58 437.375
AO-7 30 Aug 15:20:14 15:28:19 58° 64° (ENE) 15:36:28 29.400- 29.500
SWISSCUBE 30 Aug 15:26:46 15:31:29 60° 288° (WNW) 15:36:09 437.505
RS-15 30 Aug 15:48:44 15:57:49 34° 107° (ESE) 16:07:29 29.354- 29.394
BEESAT 3 30 Aug 15:49:26 15:53:23 53° 121° (ESE) 15:57:23 437.485
BEESAT 2 30 Aug 15:59:13 16:03:11 51° 121° (ESE) 16:07:11 435.950
ITUPSAT 1 30 Aug 16:04:57 16:09:07 30° 294° (WNW) 16:13:14 437.325
Gurwin Techsat 1B 30 Aug 16:14:03 16:16:41 13° 274° (W) 16:19:03 435.225
ISS 30 Aug 16:17:20 16:20:27 43° 216° (SW) 16:23:33 145.825
STARS 30 Aug 16:21:55 16:26:17 51° 100° (E) 16:30:37 437.465
AIST 2 30 Aug 16:26:01 16:29:13 22° 114° (ESE) 16:32:32 435.215
KKS-1 30 Aug 16:36:42 16:41:13 69° 286° (WNW) 16:45:40 437.445
MOZHAYETS 4 30 Aug 16:38:48 16:42:12 21° 91° (E) 16:45:42
BEESAT 30 Aug 16:40:12 16:43:04 16° 300° (WNW) 16:45:47 436.000
JAS-2 30 Aug 16:40:17 16:46:46 28° 272° (W) 16:53:12 435.910
Cosmos 2499 30 Aug 16:45:54 16:54:30 61° 268° (W) 17:02:29 435.465 / 435.565
HORYU 2 30 Aug 16:48:32 16:52:44 37° 263° (W) 16:56:55 437.375
GONETS M04 30 Aug 16:50:55 16:56:29 18° 283° (WNW) 17:01:38
CUTE-I 30 Aug 17:12:16 17:16:06 21° 61° (ENE) 17:20:05 437.470
AO-7 30 Aug 17:13:59 17:21:33 36° 265° (W) 17:29:00 29.400- 29.500
BEESAT 3 30 Aug 17:28:23 17:31:37 22° 321° (NW) 17:34:48 437.485
BEESAT 2 30 Aug 17:38:10 17:41:29 23° 320° (NW) 17:44:45 435.950
RS-15 30 Aug 17:58:18 18:09:18 76° 309° (NW) 18:20:50 29.354- 29.394
STARS 30 Aug 17:59:13 18:02:22 19° 297° (WNW) 18:05:24 437.465
AIST 2 30 Aug 18:03:26 18:07:33 46° 312° (NW) 18:11:40 435.215
Cubesat XI-IV 30 Aug 18:05:08 18:10:19 57° 71° (ENE) 18:15:33 437.490
HO-68 30 Aug 18:14:12 18:16:14 12° 44° (NE) 18:18:38 435.675
MOZHAYETS 4 30 Aug 18:15:19 18:19:41 43° 289° (WNW) 18:23:58
BRITE-PL 30 Aug 18:28:06 18:30:33 15° 60° (ENE) 18:33:15 437.365/2234.400
CUBESAT XI-V 30 Aug 18:28:15 18:32:05 26° 93° (E) 18:36:01 437.345
Cosmos 2499 30 Aug 18:42:50 18:45:52 12° 288° (WNW) 18:48:14 435.465 / 435.565
CUTE-I 30 Aug 18:50:32 18:55:47 61° 258° (WSW) 19:01:04 437.470
GOMX 1 30 Aug 19:03:11 19:06:26 20° 63° (ENE) 19:10:00 467.674
Cosmos 2491 30 Aug 19:05:49 19:12:29 24° 60° (ENE) 19:19:26 435.465 / 435.565
STRAND 1 30 Aug 19:22:01 19:26:07 25° 92° (E) 19:30:20 437.568
CANX-2 30 Aug 19:22:49 19:24:57 14° 62° (ENE) 19:27:15 2200.000
DOVE 4 30 Aug 19:23:23 19:26:43 20° 62° (ENE) 19:30:19 437.250
PRISM 30 Aug 19:31:06 19:33:55 18° 92° (E) 19:36:50 437.425
AIST 1 30 Aug 19:36:37 19:40:55 65° 79° (ENE) 19:45:15
AIST 2 30 Aug 19:45:57 19:47:11 11° 333° (NNW) 19:48:17 435.215
SEEDS 30 Aug 19:46:05 19:48:47 17° 64° (ENE) 19:51:38 437.485
Cubesat XI-IV 30 Aug 19:46:48 19:50:51 21° 269° (W) 19:54:45 437.490
O/OREOS (USA 219) 30 Aug 19:47:51 19:52:20 69° 112° (ESE) 19:56:55 437.305
HO-68 30 Aug 19:55:39 20:02:26 49° 65° (ENE) 20:09:19 435.675
BRITE-PL 30 Aug 20:04:10 20:08:30 68° 259° (W) 20:13:11 437.365/2234.400
CUBESAT XI-V 30 Aug 20:05:22 20:09:38 36° 290° (WNW) 20:13:51 437.345
COMPASS 1 30 Aug 20:09:35 20:12:52 23° 67° (ENE) 20:16:13 437.405
RS-15 30 Aug 20:14:02 20:24:00 34° 340° (NNW) 20:34:17 29.354- 29.394
CINEMA 3 30 Aug 20:17:50 20:21:53 30° 67° (ENE) 20:26:10 145.822/145.860
CUBEBUG 2 30 Aug 20:18:44 20:21:24 16° 61° (ENE) 20:24:15 437.445
AAUSAT CUBESAT 2 30 Aug 20:20:49 20:24:14 25° 68° (ENE) 20:27:42 437.432
ZACube-1 30 Aug 20:26:21 20:27:25 11° 59° (ENE) 20:28:43 437.345
UWE-3 30 Aug 20:28:36 20:31:09 15° 61° (ENE) 20:33:54 435.000/436.395/437.385
FUNcube-1 30 Aug 20:31:45 20:33:22 12° 60° (ENE) 20:35:12 145.935
GOMX 1 30 Aug 20:39:48 20:44:11 51° 262° (W) 20:48:55 467.674
CUTE 1.7 + AOD 2 30 Aug 20:42:17 20:46:34 78° 76° (ENE) 20:50:52 437.475
DELFI C3 30 Aug 20:54:57 20:57:35 18° 65° (ENE) 21:00:22 145.870
CANX-2 30 Aug 20:56:07 21:00:24 68° 259° (W) 21:04:41 2200.000
DOVE 4 30 Aug 20:59:33 21:04:03 53° 261° (W) 21:08:53 437.250
STRAND 1 30 Aug 21:00:43 21:05:35 45° 290° (WNW) 21:10:24 437.568
Cosmos 2491 30 Aug 21:01:50 21:10:37 83° 262° (W) 21:19:24 435.465 / 435.565
PRISM 30 Aug 21:05:41 21:09:34 41° 289° (WNW) 21:13:26 437.425
YUBILEINY 30 Aug 21:12:12 21:20:29 50° 89° (E) 21:28:55 435.215
AIST 1 30 Aug 21:16:12 21:18:04 12° 275° (W) 21:19:44
Oscar 11 30 Aug 21:18:39 21:22:50 47° 72° (ENE) 21:27:02 145.826/435.025
SEEDS 30 Aug 21:20:04 21:24:14 51° 261° (W) 21:28:24 437.485
HUMSAT D 30 Aug 21:20:33 21:22:53 15° 62° (ENE) 21:25:23 437.325/437.525
O/OREOS (USA 219) 30 Aug 21:29:15 21:32:20 17° 312° (NW) 21:35:18 437.305
HO-68 30 Aug 21:43:49 21:50:23 37° 265° (W) 21:56:54 435.675
COMPASS 1 30 Aug 21:44:28 21:48:21 36° 264° (W) 21:52:15 437.405
50 SAT 30 Aug 21:44:59 21:45:25 10° 61° (ENE) 21:46:04 437.505
CUBEBUG 2 30 Aug 21:52:53 21:57:31 72° 258° (WSW) 22:02:17 437.445
CINEMA 3 30 Aug 21:54:42 21:58:59 34° 265° (W) 22:03:26 145.822/145.860
AAUSAT CUBESAT 2 30 Aug 21:55:55 21:59:43 32° 264° (W) 22:03:28 437.432
VELOX 1 30 Aug 21:56:27 21:58:39 14° 61° (ENE) 22:01:01 145.980
ZACube-1 30 Aug 21:58:29 22:03:02 81° 75° (ENE) 22:07:40 437.345
UWE-3 30 Aug 22:02:32 22:07:07 73° 258° (WSW) 22:11:50 435.000/436.395/437.385
FUNcube-1 30 Aug 22:04:28 22:09:01 89° 78° (ENE) 22:13:39 145.935
ANTELSAT 30 Aug 22:20:32 22:21:44 11° 85° (E) 22:23:11 437.575/2403.000
CUTE 1.7 + AOD 2 30 Aug 22:22:00 22:23:06 11° 274° (W) 22:23:58 437.475
DELFI C3 30 Aug 22:28:27 22:32:22 45° 262° (W) 22:36:16 145.870
BEESAT 3 30 Aug 22:29:16 22:31:04 13° 31° (NNE) 22:32:57 437.485
RS-15 30 Aug 22:30:54 22:40:45 31° 13° (NNE) 22:51:04 29.354- 29.394
BEESAT 2 30 Aug 22:39:32 22:41:18 13° 31° (NNE) 22:43:09 435.950
DX 1 30 Aug 22:44:34 22:48:50 62° 73° (ENE) 22:53:09 434.975-435.025
ESTCUBE 1 30 Aug 22:44:36 22:48:29 30° 68° (ENE) 22:52:26 437.505/2401.250
HUMSAT D 30 Aug 22:53:51 22:58:09 65° 259° (W) 23:02:28 437.325/437.525
Oscar 11 30 Aug 22:56:14 22:59:17 18° 270° (W) 23:02:14 145.826/435.025
Cosmos 2504 30 Aug 22:57:18 23:04:12 33° 84° (E) 23:11:36 435.465 / 435.565
UKube-1 30 Aug 22:59:02 23:03:21 79° 75° (ENE) 23:07:42 .
Cosmos 2491 30 Aug 23:00:42 23:06:17 18° 283° (WNW) 23:11:25 435.465 / 435.565
AISAT 30 Aug 23:01:44 23:06:04 61° 73° (ENE) 23:10:29 437.250
CUBEBUG 1 30 Aug 23:06:22 23:10:23 40° 70° (ENE) 23:14:28 437.445
SPROUT 30 Aug 23:08:23 23:10:42 15° 62° (ENE) 23:13:11 437.525
UNISAT 6 30 Aug 23:09:10 23:13:23 35° 96° (E) 23:17:31 437.425
YUBILEINY 30 Aug 23:09:22 23:17:34 41° 291° (WNW) 23:25:46 435.215
AUBIESAT-1 30 Aug 23:10:04 23:12:42 17° 95° (E) 23:15:18 437.475
M-CUBED/EXP-1 PRIME 30 Aug 23:13:50 23:17:03 23° 97° (E) 23:20:07 437.505
50 SAT 30 Aug 23:15:24 23:19:22 83° 256° (WSW) 23:23:22 437.505
QB50P2 30 Aug 23:16:48 23:19:22 16° 89° (E) 23:22:05 145.880/145.840
NANOSAT C BR1 30 Aug 23:18:47 23:21:19 16° 89° (E) 23:24:01 145.865
VELOX 1 30 Aug 23:30:18 23:34:41 72° 258° (WSW) 23:39:06 145.980
QB50P1 30 Aug 23:31:23 23:34:41 22° 92° (E) 23:38:03 145.935-145.965
TIGRISAT 30 Aug 23:38:00 23:42:37 66° 100° (E) 23:47:05 435.000
ZACube-1 30 Aug 23:38:22 23:40:05 12° 275° (W) 23:41:32 437.345
FUNcube-1 30 Aug 23:45:25 23:46:06 10° 276° (W) 23:46:30 145.935
ANTELSAT 30 Aug 23:54:36 23:59:15 82° 283° (WNW) 00:03:45 437.575/2403.000
BEESAT 3 31 Aug 00:05:46 00:09:48 66° 52° (NE) 00:13:47 437.485
CUSAT 1 31 Aug 00:11:23 00:14:55 33° 89° (E) 00:19:32 437.405
TISAT 1 31 Aug 00:15:05 00:18:59 39° 70° (ENE) 00:22:57 437.305
BEESAT 2 31 Aug 00:16:07 00:20:11 64° 52° (NE) 00:24:10 435.950
ESTCUBE 1 31 Aug 00:21:23 00:25:20 30° 265° (W) 00:29:16 437.505/2401.250
DX 1 31 Aug 00:23:14 00:25:34 14° 271° (W) 00:27:43 434.975-435.025
POLYITAN 1 31 Aug 00:31:33 00:35:55 87° 284° (WNW) 00:40:13 437.675
DANDE 31 Aug 00:31:40 00:34:44 29° 88° (E) 00:38:41 436.750
BEESAT 31 Aug 00:34:28 00:36:58 15° 60° (ENE) 00:39:39 436.000
POPSAT HIP 1 31 Aug 00:34:38 00:38:58 83° 285° (WNW) 00:43:16 437.405
DUCHIFAT 1 31 Aug 00:36:07 00:40:26 83° 284° (WNW) 00:44:42 145.980
UKube-1 31 Aug 00:39:07 00:40:08 11° 274° (W) 00:40:53 .
AISAT 31 Aug 00:40:37 00:43:08 14° 271° (W) 00:45:28 437.250
SPROUT 31 Aug 00:42:03 00:46:19 64° 259° (W) 00:50:38 437.525
CUBEBUG 1 31 Aug 00:43:36 00:46:56 21° 268° (W) 00:50:11 437.445
AUBIESAT-1 31 Aug 00:43:53 00:47:43 40° 295° (WNW) 00:51:14 437.475
RS-15 31 Aug 00:44:37 00:56:12 61° 44° (NE) 01:08:17 29.354- 29.394
AIST 2 31 Aug 00:44:45 00:48:31 31° 44° (NE) 00:52:15 435.215
UNISAT 6 31 Aug 00:46:08 00:50:03 27° 294° (WNW) 00:53:47 437.425
Cosmos 2504 31 Aug 00:47:55 00:55:59 60° 285° (WNW) 01:04:28 435.465 / 435.565
M-CUBED/EXP-1 PRIME 31 Aug 00:48:14 00:51:56 32° 298° (WNW) 00:55:20 437.505
BUGSAT 1 31 Aug 00:48:38 00:52:55 86° 103° (ESE) 00:57:12 437.445
QB50P2 31 Aug 00:51:25 00:55:38 53° 288° (WNW) 00:59:49 145.880/145.840
SO-50 31 Aug 00:51:38 00:54:41 17° 111° (ESE) 00:57:57 436.795
NANOSAT C BR1 31 Aug 00:53:19 00:57:32 53° 287° (WNW) 01:01:42 145.865
SWISSCUBE 31 Aug 00:58:40 01:02:31 25° 65° (ENE) 01:06:26 437.505
QB50P1 31 Aug 01:06:40 01:10:41 38° 290° (WNW) 01:14:39 145.935-145.965
PCSat 31 Aug 01:11:02 01:12:54 12° 104° (ESE) 01:15:06 145.827
TIGRISAT 31 Aug 01:16:01 01:18:51 16° 299° (WNW) 01:21:31 435.000
ANTELSAT 31 Aug 01:33:56 01:35:17 11° 302° (WNW) 01:36:24 437.575/2403.000
ITUPSAT 1 31 Aug 01:35:45 01:40:21 50° 71° (ENE) 01:44:59 437.325
BEESAT 3 31 Aug 01:45:11 01:47:15 13° 249° (WSW) 01:49:10 437.485
TISAT 1 31 Aug 01:51:42 01:54:55 20° 268° (W) 01:58:04 437.305
CUSAT 1 31 Aug 01:54:11 01:57:40 24° 298° (WNW) 02:01:55 437.405
BEESAT 2 31 Aug 01:55:31 01:57:46 14° 249° (WSW) 01:59:50 435.950
GONETS M04 31 Aug 02:01:36 02:07:56 24° 80° (E) 02:14:37
KKS-1 31 Aug 02:02:09 02:04:58 17° 63° (ENE) 02:07:57 437.445
BEESAT 31 Aug 02:09:28 02:14:14 78° 255° (WSW) 02:19:03 436.000
POLYITAN 1 31 Aug 02:10:08 02:11:09 11° 301° (WNW) 02:11:58 437.675
Oscar 19 31 Aug 02:11:57 02:16:55 43° 98° (E) 02:21:52 437.125/150
POPSAT HIP 1 31 Aug 02:13:47 02:14:09 10° 301° (WNW) 02:14:18 437.405
DANDE 31 Aug 02:15:06 02:18:03 21° 299° (WNW) 02:21:36 436.750
AIST 2 31 Aug 02:23:18 02:27:05 33° 243° (WSW) 02:30:47 435.215
BUGSAT 1 31 Aug 02:26:24 02:27:47 11° 300° (WNW) 02:29:00 437.445
SO-50 31 Aug 02:29:55 02:34:44 71° 309° (NW) 02:39:41 436.795
SWISSCUBE 31 Aug 02:35:41 02:40:12 40° 262° (W) 02:44:41 437.505
Gurwin Techsat 1B 31 Aug 02:44:57 02:49:30 29° 94° (E) 02:54:07 435.225
Cosmos 2504 31 Aug 02:46:12 02:50:32 14° 310° (NW) 02:54:28 435.465 / 435.565
PCSat 31 Aug 02:50:09 02:55:34 81° 119° (ESE) 03:01:02 145.827
RS-15 31 Aug 02:57:26 03:08:39 50° 247° (WSW) 03:20:02 29.354- 29.394
ITAMSAT 1 31 Aug 03:08:38 03:13:25 37° 97° (E) 03:18:14 435.822/435.867
ITUPSAT 1 31 Aug 03:14:58 03:18:33 20° 269° (W) 03:22:01 437.325
STARS 31 Aug 03:20:38 03:24:58 60° 73° (ENE) 03:29:22 437.465
AO-7 31 Aug 03:21:44 03:25:25 14° 83° (E) 03:29:40 29.400- 29.500
Cosmos 2499 31 Aug 03:32:58 03:39:18 25° 80° (E) 03:46:09 435.465 / 435.565
KKS-1 31 Aug 03:36:49 03:41:13 57° 260° (W) 03:45:39 437.445
MOZHAYETS 4 31 Aug 03:42:47 03:46:35 26° 67° (ENE) 03:50:27
JAS-2 31 Aug 03:46:55 03:53:53 52° 97° (E) 04:00:04 435.910
Oscar 19 31 Aug 03:51:42 03:56:05 28° 296° (WNW) 04:00:23 437.125/150
GONETS M04 31 Aug 03:55:15 04:03:57 78° 281° (W) 04:12:44
SO-50 31 Aug 04:12:54 04:16:11 17° 330° (NNW) 04:19:26 436.795
O/OREOS (USA 219) 31 Aug 04:16:52 04:20:38 25° 53° (NE) 04:24:27 437.305
Gurwin Techsat 1B 31 Aug 04:24:39 04:29:38 41° 292° (WNW) 04:34:34 435.225
PCSat 31 Aug 04:35:29 04:39:41 22° 322° (NW) 04:43:49 145.827
HORYU 2 31 Aug 04:37:17 04:41:23 34° 97° (E) 04:45:27 437.375
ITAMSAT 1 31 Aug 04:48:18 04:52:52 31° 294° (WNW) 04:57:22 435.822/435.867
VERMONT LUNAR 31 Aug 04:55:05 04:57:15 19° 162° (SSE) 04:59:27 437.305
STARS 31 Aug 04:59:16 05:01:52 15° 271° (W) 05:04:19 437.465
AO-7 31 Aug 05:11:40 05:19:59 70° 105° (ESE) 05:28:15 29.400- 29.500
MOZHAYETS 4 31 Aug 05:19:24 05:23:41 36° 264° (W) 05:27:56
Cosmos 2499 31 Aug 05:23:05 05:31:35 79° 280° (W) 05:40:32 435.465 / 435.565
JAS-2 31 Aug 05:32:18 05:38:40 34° 299° (WNW) 05:44:19 435.910
CUBESAT XI-V 31 Aug 05:33:44 05:37:47 32° 69° (ENE) 05:41:54 437.345
O/OREOS (USA 219) 31 Aug 05:55:54 06:00:16 43° 252° (WSW) 06:04:36 437.305
GONETS M04 31 Aug 05:56:45 06:02:38 19° 305° (NW) 06:08:10
HORYU 2 31 Aug 06:14:08 06:17:54 26° 294° (WNW) 06:21:34 437.375
Cubesat XI-IV 31 Aug 06:21:03 06:24:39 19° 89° (E) 06:28:25 437.490
PRISM 31 Aug 06:23:24 06:26:17 19° 64° (ENE) 06:29:15 437.425
VERMONT LUNAR 31 Aug 06:30:34 06:33:15 31° 179° (S) 06:35:57 437.305
STRAND 1 31 Aug 06:39:51 06:44:39 44° 69° (ENE) 06:49:31 437.568
PHONESAT 2.4 31 Aug 06:58:06 07:00:39 20° 160° (SSE) 07:03:14 2401.200-2431.200
AO-7 31 Aug 07:05:10 07:12:15 32° 305° (NW) 07:19:11 29.400- 29.500
CUTE-I 31 Aug 07:05:19 07:10:24 45° 98° (E) 07:15:31 437.470
CUBESAT XI-V 31 Aug 07:11:14 07:15:15 29° 266° (W) 07:19:14 437.345
YUBILEINY 31 Aug 07:19:37 07:26:53 28° 62° (ENE) 07:34:19 435.215
Cosmos 2499 31 Aug 07:20:24 07:26:32 20° 305° (NW) 07:32:27 435.465 / 435.565
SO-50 31 Aug 07:40:18 07:41:43 11° 19° (NNE) 07:43:14 436.795
PRISM 31 Aug 07:57:33 08:01:27 42° 261° (W) 08:05:21 437.425
Cubesat XI-IV 31 Aug 08:00:00 08:05:16 63° 289° (WNW) 08:10:32 437.490
BRITE-PL 31 Aug 08:05:49 08:10:51 37° 95° (E) 08:16:06 437.365/2234.400
VERMONT LUNAR 31 Aug 08:06:54 08:09:16 21° 195° (SSW) 08:11:38 437.305
AIST 1 31 Aug 08:08:33 08:12:20 33° 92° (E) 08:16:11
Cosmos 2491 31 Aug 08:11:33 08:17:52 24° 80° (E) 08:24:31 435.465 / 435.565
STRAND 1 31 Aug 08:19:52 08:24:05 25° 267° (W) 08:28:13 437.568
CUTE 1.7 + AOD 2 31 Aug 08:27:32 08:28:48 11° 86° (E) 08:30:17 437.475
PHONESAT 2.4 31 Aug 08:34:56 08:38:04 35° 177° (S) 08:41:13 2401.200-2431.200
GOMX 1 31 Aug 08:38:39 08:43:50 44° 97° (E) 08:49:05 467.674
CANX-2 31 Aug 08:40:08 08:42:59 18° 90° (E) 08:45:54 2200.000
Cosmos 2504 31 Aug 08:42:10 08:45:33 13° 49° (NE) 08:49:22 435.465 / 435.565
CUTE-I 31 Aug 08:45:49 08:50:18 28° 296° (WNW) 08:54:42 437.470
DOVE 4 31 Aug 08:56:02 09:00:59 39° 95° (E) 09:05:58 437.250
ISS 31 Aug 08:58:41 09:00:48 17° 136° (SE) 09:03:00 145.825
SEEDS 31 Aug 09:02:38 09:05:52 22° 92° (E) 09:09:10 437.485
CUSAT 1 31 Aug 09:03:18 09:05:10 11° 50° (NE) 09:07:35 437.405
TIGRISAT 31 Aug 09:06:08 09:07:00 11° 58° (ENE) 09:08:07 435.000
HO-68 31 Aug 09:08:14 09:14:55 41° 97° (E) 09:21:39 435.675
YUBILEINY 31 Aug 09:15:51 09:24:41 73° 265° (W) 09:33:24 435.215
SO-50 31 Aug 09:19:18 09:23:48 33° 42° (NE) 09:28:15 436.795
ANTELSAT 31 Aug 09:20:58 09:23:35 15° 61° (ENE) 09:26:24 437.575/2403.000
COMPASS 1 31 Aug 09:25:27 09:29:06 29° 95° (E) 09:32:46 437.405
DANDE 31 Aug 09:25:57 09:27:37 11° 52° (NE) 09:29:53 436.750
AAUSAT CUBESAT 2 31 Aug 09:36:13 09:39:58 32° 96° (E) 09:43:42 437.432
CUBEBUG 2 31 Aug 09:42:36 09:46:13 22° 91° (E) 09:49:52 437.445
Cubesat XI-IV 31 Aug 09:43:18 09:44:28 11° 306° (NW) 09:45:21 437.490
BRITE-PL 31 Aug 09:44:22 09:49:19 36° 292° (WNW) 09:54:24 437.365/2234.400
AIST 1 31 Aug 09:46:39 09:50:05 23° 290° (WNW) 09:53:28
ZACube-1 31 Aug 09:46:40 09:48:55 14° 87° (E) 09:51:22 437.345
CINEMA 3 31 Aug 09:46:48 09:51:44 52° 99° (E) 09:56:32 145.822/145.860
UWE-3 31 Aug 09:51:08 09:54:33 21° 90° (E) 09:58:02 435.000/436.395/437.385
FUNcube-1 31 Aug 09:52:07 09:54:42 15° 88° (E) 09:57:26 145.935
PCSat 31 Aug 09:53:11 09:57:20 22° 38° (NE) 10:01:34 145.827
POLYITAN 1 31 Aug 09:54:06 09:55:17 11° 60° (ENE) 09:56:41 437.675
POPSAT HIP 1 31 Aug 09:56:47 09:58:08 12° 60° (ENE) 09:59:42 437.405
AUBIESAT-1 31 Aug 09:57:45 10:02:09 40° 64° (ENE) 10:06:30 437.475
DUCHIFAT 1 31 Aug 09:57:57 09:59:12 11° 60° (ENE) 10:00:40 145.980
CUTE 1.7 + AOD 2 31 Aug 10:01:04 10:05:18 71° 285° (WNW) 10:09:28 437.475
M-CUBED/EXP-1 PRIME 31 Aug 10:02:08 10:06:46 50° 66° (ENE) 10:11:21 437.505
Cosmos 2491 31 Aug 10:05:10 10:13:54 78° 280° (W) 10:22:40 435.465 / 435.565
DELFI C3 31 Aug 10:05:40 10:08:34 19° 92° (E) 10:11:33 145.870
UNISAT 6 31 Aug 10:09:48 10:14:11 41° 70° (ENE) 10:18:39 437.425
QB50P2 31 Aug 10:12:04 10:14:47 17° 63° (ENE) 10:17:37 145.880/145.840
PHONESAT 2.4 31 Aug 10:12:37 10:15:33 27° 193° (SSW) 10:18:29 2401.200-2431.200
NANOSAT C BR1 31 Aug 10:13:39 10:16:18 17° 63° (ENE) 10:19:06 145.865
CANX-2 31 Aug 10:15:07 10:19:10 45° 288° (WNW) 10:23:11 2200.000
GOMX 1 31 Aug 10:17:05 10:21:47 30° 293° (WNW) 10:26:26 467.674
QB50P1 31 Aug 10:26:20 10:29:37 22° 66° (ENE) 10:32:59 145.935-145.965
Cosmos 2504 31 Aug 10:31:51 10:40:15 56° 74° (ENE) 10:48:12 435.465 / 435.565
ISS 31 Aug 10:33:40 10:36:55 78° 333° (NNW) 10:40:10 145.825
DOVE 4 31 Aug 10:33:56 10:38:37 32° 293° (WNW) 10:43:13 437.250
HUMSAT D 31 Aug 10:36:38 10:39:28 18° 90° (E) 10:42:22 437.325/437.525
SEEDS 31 Aug 10:37:55 10:41:47 35° 290° (WNW) 10:45:35 437.485
TIGRISAT 31 Aug 10:38:18 10:42:59 75° 74° (ENE) 10:47:42 435.000
Oscar 11 31 Aug 10:39:35 10:43:55 72° 102° (ESE) 10:48:13 145.826/435.025
CUSAT 1 31 Aug 10:42:23 10:49:37 47° 71° (ENE) 10:57:33 437.405
UKube-1 31 Aug 10:46:37 10:47:48 11° 87° (E) 10:49:14 .
ANTELSAT 31 Aug 10:55:08 10:59:50 73° 258° (WSW) 11:04:35 437.575/2403.000
HO-68 31 Aug 10:55:57 11:02:45 45° 296° (WNW) 11:09:27 435.675
SO-50 31 Aug 10:59:47 11:04:29 43° 241° (WSW) 11:09:02 436.795
COMPASS 1 31 Aug 11:01:11 11:04:42 26° 292° (WNW) 11:08:08 437.405
DANDE 31 Aug 11:05:27 11:12:28 49° 72° (ENE) 11:20:36 436.750
AAUSAT CUBESAT 2 31 Aug 11:12:03 11:15:26 24° 293° (WNW) 11:18:43 437.432
YUBILEINY 31 Aug 11:15:18 11:20:04 15° 285° (WNW) 11:24:17 435.215
CUBEBUG 2 31 Aug 11:18:39 11:23:09 43° 289° (WNW) 11:27:29 437.445
VELOX 1 31 Aug 11:19:19 11:22:24 19° 91° (E) 11:25:36 145.980
ZACube-1 31 Aug 11:21:18 11:25:49 65° 286° (WNW) 11:30:12 437.345
CINEMA 3 31 Aug 11:24:40 11:28:34 22° 296° (WNW) 11:32:17 145.822/145.860
POLYITAN 1 31 Aug 11:26:17 11:30:34 88° 256° (WSW) 11:34:54 437.675
UWE-3 31 Aug 11:26:55 11:31:21 44° 289° (WNW) 11:35:38 435.000/436.395/437.385
FUNcube-1 31 Aug 11:27:02 11:31:29 58° 287° (WNW) 11:35:49 145.935
POPSAT HIP 1 31 Aug 11:29:09 11:33:24 84° 257° (WSW) 11:37:43 437.405
DUCHIFAT 1 31 Aug 11:30:10 11:34:24 85° 256° (WSW) 11:38:42 145.980
AUBIESAT-1 31 Aug 11:32:51 11:36:54 27° 261° (W) 11:40:51 437.475
PCSat 31 Aug 11:35:59 11:41:26 80° 241° (WSW) 11:46:52 145.827
M-CUBED/EXP-1 PRIME 31 Aug 11:38:00 11:41:45 22° 263° (W) 11:45:22 437.505
DELFI C3 31 Aug 11:40:05 11:43:47 36° 290° (WNW) 11:47:26 145.870
BUGSAT 1 31 Aug 11:40:32 11:44:36 79° 76° (ENE) 11:48:45 437.445
QB50P2 31 Aug 11:46:07 11:50:17 53° 260° (W) 11:54:31 145.880/145.840
UNISAT 6 31 Aug 11:47:18 11:51:08 24° 268° (W) 11:54:54 437.425
NANOSAT C BR1 31 Aug 11:47:36 11:51:45 53° 260° (W) 11:55:58 145.865
PHONESAT 2.4 31 Aug 11:52:18 11:52:48 10° 209° (SSW) 11:53:11 2401.200-2431.200
Oscar 19 31 Aug 11:55:25 11:57:25 13° 56° (ENE) 11:59:40 437.125/150
QB50P1 31 Aug 12:01:18 12:05:16 38° 263° (W) 12:09:16 145.935-145.965
DX 1 31 Aug 12:06:37 12:11:02 86° 100° (E) 12:15:27 434.975-435.025
Cosmos 2491 31 Aug 12:06:39 12:12:34 19° 305° (NW) 12:18:07 435.465 / 435.565
GONETS M04 31 Aug 12:08:05 12:12:07 14° 49° (NE) 12:16:40
ISS 31 Aug 12:10:48 12:13:41 28° 352° (N) 12:16:35 145.825
ESTCUBE 1 31 Aug 12:11:04 12:15:25 47° 99° (E) 12:19:46 437.505/2401.250
HUMSAT D 31 Aug 12:11:23 12:15:29 45° 288° (WNW) 12:19:29 437.325/437.525
Oscar 11 31 Aug 12:17:25 12:19:35 13° 299° (WNW) 12:21:35 145.826/435.025
TIGRISAT 31 Aug 12:18:01 12:20:21 13° 274° (W) 12:22:26 435.000
UKube-1 31 Aug 12:20:11 12:24:33 76° 286° (WNW) 12:28:52 .
50 SAT 31 Aug 12:22:40 12:26:33 75° 285° (WNW) 12:30:23 437.505
Cosmos 2504 31 Aug 12:24:36 12:32:08 35° 276° (W) 12:39:08 435.465 / 435.565
CUSAT 1 31 Aug 12:25:00 12:32:12 44° 268° (W) 12:39:50 437.405
AISAT 31 Aug 12:26:22 12:30:53 89° 285° (WNW) 12:35:22 437.250
SPROUT 31 Aug 12:27:11 12:30:16 19° 91° (E) 12:33:28 437.525
CUBEBUG 1 31 Aug 12:28:42 12:33:05 60° 101° (E) 12:37:27 437.445
HO-68 31 Aug 12:47:17 12:48:50 11° 317° (NW) 12:50:01 435.675
DANDE 31 Aug 12:48:40 12:55:37 43° 268° (W) 13:03:21 436.750
ITAMSAT 1 31 Aug 12:53:41 12:55:09 11° 55° (NE) 12:56:52 435.822/435.867
VELOX 1 31 Aug 12:54:55 12:59:15 48° 289° (WNW) 13:03:32 145.980
PCSat 31 Aug 13:22:00 13:24:05 12° 256° (WSW) 13:25:52 145.827
Cosmos 2499 31 Aug 13:22:54 13:24:27 11° 44° (NE) 13:26:33 435.465 / 435.565
Oscar 19 31 Aug 13:30:50 13:36:00 78° 73° (ENE) 13:41:14 437.125/150
TISAT 1 31 Aug 13:32:30 13:36:42 52° 100° (E) 13:40:53 437.305
ITUPSAT 1 31 Aug 13:37:03 13:37:41 10° 85° (E) 13:38:38 437.325
DX 1 31 Aug 13:44:57 13:46:42 12° 301° (WNW) 13:48:13 434.975-435.025
ISS 31 Aug 13:47:44 13:50:42 31° 12° (NNE) 13:53:40 145.825
ESTCUBE 1 31 Aug 13:48:39 13:51:59 20° 296° (WNW) 13:55:13 437.505/2401.250
JAS-2 31 Aug 13:59:49 14:06:34 35° 62° (ENE) 14:13:31 435.910
SPROUT 31 Aug 14:02:26 14:06:36 44° 289° (WNW) 14:10:42 437.525
GONETS M04 31 Aug 14:02:41 14:11:23 61° 75° (ENE) 14:20:07
AISAT 31 Aug 14:05:11 14:06:49 12° 301° (WNW) 14:08:14 437.250
CUBEBUG 1 31 Aug 14:06:14 14:09:01 16° 297° (WNW) 14:11:40 437.445
Gurwin Techsat 1B 31 Aug 14:08:02 14:13:12 56° 71° (ENE) 14:18:25 435.225
BEESAT 31 Aug 14:08:06 14:11:47 23° 92° (E) 14:15:34 436.000
